Time,TemperatureF,DewpointF,PressureIn,WindDirection,WindDirectionDegrees,WindSpeedMPH,WindSpeedGustMPH,Humidity,HourlyPrecipIn,Conditions,Clouds,dailyrainin,SoftwareType,DateUTC
2013-02-23 00:00:00,29.5,24.4,28.58,North,0,7.0,8.0,81,0.00,,,0.00,meteohub,2013-02-23 06:00:00,
2013-02-23 00:05:00,29.5,24.4,28.58,NE,45,8.0,8.0,81,0.00,,,0.00,meteohub,2013-02-23 06:05:00,
2013-02-23 00:10:00,29.3,24.3,28.58,East,90,6.0,8.0,81,0.00,,,0.00,meteohub,2013-02-23 06:10:00,
2013-02-23 00:15:00,29.3,24.4,28.58,East,90,5.0,8.0,82,0.00,,,0.00,meteohub,2013-02-23 06:15:00,
2013-02-23 00:20:00,29.3,24.8,28.58,ENE,68,6.0,8.0,83,0.00,,,0.00,meteohub,2013-02-23 06:20:00,
2013-02-23 00:25:00,29.1,25.0,28.57,NE,45,4.0,6.0,84,0.00,,,0.00,meteohub,2013-02-23 06:25:00,
2013-02-23 00:31:00,28.9,24.4,28.57,NE,45,6.0,7.0,83,0.00,,,0.00,meteohub,2013-02-23 06:31:00,
2013-02-23 00:36:00,28.9,24.4,28.57,East,90,7.0,7.0,83,0.00,,,0.00,meteohub,2013-02-23 06:36:00,
2013-02-23 00:41:00,28.6,24.1,28.57,NE,45,7.0,7.0,83,0.00,,,0.00,meteohub,2013-02-23 06:41:00,
2013-02-23 00:46:00,28.8,24.6,28.56,NE,45,6.0,7.0,84,0.00,,,0.00,meteohub,2013-02-23 06:46:00,
2013-02-23 00:51:00,28.8,24.6,28.56,NE,45,7.0,7.0,84,0.00,,,0.00,meteohub,2013-02-23 06:51:00,
2013-02-23 00:56:00,28.8,24.6,28.57,NE,45,4.0,8.0,84,0.00,,,0.00,meteohub,2013-02-23 06:56:00,
2013-02-23 01:01:00,29.1,25.0,28.57,East,90,3.0,8.0,84,0.00,,,0.00,meteohub,2013-02-23 07:01:00,
2013-02-23 01:06:00,28.6,24.4,28.57,NE,45,7.0,8.0,84,0.00,,,0.00,meteohub,2013-02-23 07:06:00,
2013-02-23 01:11:00,28.6,24.4,28.56,East,90,8.0,8.0,84,0.00,,,0.00,meteohub,2013-02-23 07:11:00,
2013-02-23 01:16:00,28.6,24.4,28.56,East,90,7.0,8.0,84,0.00,,,0.00,meteohub,2013-02-23 07:16:00,
2013-02-23 01:21:00,28.6,24.4,28.57,East,90,3.0,8.0,84,0.00,,,0.00,meteohub,2013-02-23 07:21:00,
2013-02-23 01:26:00,28.2,24.1,28.58,East,90,2.0,8.0,84,0.00,,,0.00,meteohub,2013-02-23 07:26:00,
2013-02-23 01:31:00,28.2,24.1,28.58,NE,45,2.0,7.0,84,0.00,,,0.00,meteohub,2013-02-23 07:31:00,
2013-02-23 01:36:00,28.0,23.9,28.57,East,90,4.0,4.0,84,0.00,,,0.00,meteohub,2013-02-23 07:36:00,
2013-02-23 01:41:00,27.9,23.7,28.57,East,90,2.0,4.0,84,0.00,,,0.00,meteohub,2013-02-23 07:41:00,
2013-02-23 01:46:00,27.5,23.4,28.57,NE,45,2.0,4.0,84,0.00,,,0.00,meteohub,2013-02-23 07:46:00,
2013-02-23 01:51:00,27.5,23.4,28.57,East,90,1.0,4.0,84,0.00,,,0.00,meteohub,2013-02-23 07:51:00,
2013-02-23 01:56:00,27.1,23.0,28.57,East,90,2.0,3.0,84,0.00,,,0.00,meteohub,2013-02-23 07:56:00,
2013-02-23 02:01:00,26.8,22.8,28.57,East,90,2.0,2.0,85,0.00,,,0.00,meteohub,2013-02-23 08:01:00,
2013-02-23 02:06:00,27.1,23.2,28.57,North,0,2.0,2.0,85,0.00,,,0.00,meteohub,2013-02-23 08:06:00,
2013-02-23 02:11:00,27.1,23.2,28.56,East,90,2.0,2.0,85,0.00,,,0.00,meteohub,2013-02-23 08:11:00,
2013-02-23 02:16:00,26.6,23.0,28.57,North,0,1.0,2.0,86,0.00,,,0.00,meteohub,2013-02-23 08:16:00,
2013-02-23 02:21:00,26.6,23.0,28.57,NW,315,1.0,2.0,86,0.00,,,0.00,meteohub,2013-02-23 08:21:00,
2013-02-23 02:26:00,26.4,23.0,28.57,NW,315,1.0,2.0,87,0.00,,,0.00,meteohub,2013-02-23 08:26:00,
2013-02-23 02:31:00,26.1,22.6,28.57,East,90,1.0,2.0,87,0.00,,,0.00,meteohub,2013-02-23 08:31:00,
2013-02-23 02:36:00,26.2,22.8,28.57,South,180,1.0,2.0,87,0.00,,,0.00,meteohub,2013-02-23 08:36:00,
2013-02-23 02:41:00,26.1,22.6,28.57,NW,315,1.0,2.0,87,0.00,,,0.00,meteohub,2013-02-23 08:41:00,
2013-02-23 02:46:00,26.1,22.6,28.56,West,270,0.0,2.0,87,0.00,,,0.00,meteohub,2013-02-23 08:46:00,
2013-02-23 02:51:00,26.1,23.0,28.56,West,270,2.0,2.0,88,0.00,,,0.00,meteohub,2013-02-23 08:51:00,
2013-02-23 02:56:00,25.9,22.8,28.56,West,270,2.0,2.0,88,0.00,,,0.00,meteohub,2013-02-23 08:56:00,
2013-02-23 03:01:00,25.9,23.0,28.56,SW,225,1.0,2.0,89,0.00,,,0.00,meteohub,2013-02-23 09:01:00,
2013-02-23 03:06:00,25.9,23.0,28.56,SW,225,2.0,2.0,89,0.00,,,0.00,meteohub,2013-02-23 09:06:00,
2013-02-23 03:11:00,25.9,23.0,28.56,NW,315,0.0,2.0,89,0.00,,,0.00,meteohub,2013-02-23 09:11:00,
2013-02-23 03:16:00,25.9,23.0,28.56,NW,315,0.0,2.0,89,0.00,,,0.00,meteohub,2013-02-23 09:16:00,
2013-02-23 03:21:00,25.9,23.4,28.55,North,0,1.0,2.0,90,0.00,,,0.00,meteohub,2013-02-23 09:21:00,
2013-02-23 03:26:00,25.9,23.4,28.55,NE,45,1.0,2.0,90,0.00,,,0.00,meteohub,2013-02-23 09:26:00,
2013-02-23 03:31:00,25.7,23.2,28.54,North,0,2.0,2.0,90,0.00,,,0.00,meteohub,2013-02-23 09:31:00,
2013-02-23 03:36:00,26.1,23.7,28.54,NW,315,1.0,2.0,91,0.00,,,0.00,meteohub,2013-02-23 09:36:00,
2013-02-23 03:41:00,25.9,23.5,28.54,North,0,2.0,2.0,91,0.00,,,0.00,meteohub,2013-02-23 09:41:00,
2013-02-23 03:46:00,26.1,23.7,28.53,North,0,2.0,2.0,91,0.00,,,0.00,meteohub,2013-02-23 09:46:00,
2013-02-23 03:51:00,26.1,23.7,28.53,NW,315,2.0,3.0,91,0.00,,,0.00,meteohub,2013-02-23 09:51:00,
2013-02-23 03:56:00,26.2,23.9,28.53,North,0,2.0,3.0,91,0.00,,,0.00,meteohub,2013-02-23 09:56:00,
2013-02-23 04:01:00,26.2,23.9,28.53,NE,45,2.0,3.0,91,0.00,,,0.00,meteohub,2013-02-23 10:01:00,
2013-02-23 04:06:00,26.6,24.3,28.53,North,0,2.0,2.0,91,0.00,,,0.00,meteohub,2013-02-23 10:06:00,
2013-02-23 04:11:00,26.8,24.3,28.53,North,0,2.0,2.0,90,0.00,,,0.00,meteohub,2013-02-23 10:11:00,
2013-02-23 04:16:00,26.8,24.3,28.53,NW,315,2.0,2.0,90,0.00,,,0.00,meteohub,2013-02-23 10:16:00,
2013-02-23 04:21:00,27.0,24.4,28.53,NW,315,2.0,2.0,90,0.00,,,0.00,meteohub,2013-02-23 10:21:00,
2013-02-23 04:26:00,27.0,24.4,28.53,NW,315,2.0,2.0,90,0.00,,,0.00,meteohub,2013-02-23 10:26:00,
2013-02-23 04:31:00,26.8,24.3,28.53,NW,315,1.0,2.0,90,0.00,,,0.00,meteohub,2013-02-23 10:31:00,
2013-02-23 04:36:00,26.8,24.3,28.53,NW,315,2.0,2.0,90,0.00,,,0.00,meteohub,2013-02-23 10:36:00,
2013-02-23 04:41:00,26.8,24.3,28.53,NW,315,2.0,2.0,90,0.00,,,0.00,meteohub,2013-02-23 10:41:00,
2013-02-23 04:46:00,26.6,24.3,28.52,NW,315,0.0,2.0,91,0.00,,,0.00,meteohub,2013-02-23 10:46:00,
2013-02-23 04:51:00,26.4,24.1,28.53,NW,315,0.0,2.0,91,0.00,,,0.00,meteohub,2013-02-23 10:51:00,
2013-02-23 04:56:00,26.6,24.3,28.52,SW,225,0.0,2.0,91,0.00,,,0.00,meteohub,2013-02-23 10:56:00,
2013-02-23 05:01:00,26.4,24.1,28.53,West,270,2.0,2.0,91,0.00,,,0.00,meteohub,2013-02-23 11:01:00,
2013-02-23 05:06:00,26.2,23.9,28.53,West,270,2.0,2.0,91,0.00,,,0.00,meteohub,2013-02-23 11:06:00,
2013-02-23 05:11:00,26.2,24.3,28.53,West,270,2.0,2.0,92,0.00,,,0.00,meteohub,2013-02-23 11:11:00,
2013-02-23 05:16:00,26.1,24.1,28.53,West,270,1.0,2.0,92,0.00,,,0.00,meteohub,2013-02-23 11:16:00,
2013-02-23 05:21:00,26.1,24.1,28.53,NW,315,2.0,2.0,92,0.00,,,0.00,meteohub,2013-02-23 11:21:00,
2013-02-23 05:26:00,25.9,24.1,28.53,NW,315,2.0,2.0,93,0.00,,,0.00,meteohub,2013-02-23 11:26:00,
2013-02-23 05:31:00,25.9,24.1,28.53,NW,315,2.0,2.0,93,0.00,,,0.00,meteohub,2013-02-23 11:31:00,
2013-02-23 05:36:00,25.7,23.9,28.54,NW,315,3.0,3.0,93,0.00,,,0.00,meteohub,2013-02-23 11:36:00,
2013-02-23 05:41:00,25.7,23.9,28.53,NW,315,2.0,4.0,93,0.00,,,0.00,meteohub,2013-02-23 11:41:00,
2013-02-23 05:46:00,25.9,24.1,28.53,NW,315,2.0,4.0,93,0.00,,,0.00,meteohub,2013-02-23 11:46:00,
2013-02-23 05:51:00,25.9,24.1,28.53,NW,315,2.0,4.0,93,0.00,,,0.00,meteohub,2013-02-23 11:51:00,
2013-02-23 05:56:00,26.1,24.3,28.53,NW,315,2.0,3.0,93,0.00,,,0.00,meteohub,2013-02-23 11:56:00,
2013-02-23 06:01:00,26.2,24.4,28.53,NW,315,2.0,4.0,93,0.00,,,0.00,meteohub,2013-02-23 12:01:00,
2013-02-23 06:06:00,26.2,24.3,28.53,NW,315,2.0,4.0,92,0.00,,,0.00,meteohub,2013-02-23 12:06:00,
2013-02-23 06:11:00,26.4,24.1,28.53,North,0,3.0,4.0,91,0.00,,,0.00,meteohub,2013-02-23 12:11:00,
2013-02-23 06:17:00,26.6,24.3,28.53,North,0,3.0,4.0,91,0.00,,,0.00,meteohub,2013-02-23 12:17:00,
2013-02-23 06:22:00,26.8,24.4,28.53,NW,315,4.0,4.0,91,0.00,,,0.00,meteohub,2013-02-23 12:22:00,
2013-02-23 06:27:00,26.8,24.8,28.53,NW,315,3.0,4.0,92,0.00,,,0.00,meteohub,2013-02-23 12:27:00,
2013-02-23 06:32:00,26.6,24.6,28.53,West,270,4.0,4.0,92,0.00,,,0.00,meteohub,2013-02-23 12:32:00,
2013-02-23 06:37:00,26.4,24.4,28.54,West,270,3.0,4.0,92,0.00,,,0.00,meteohub,2013-02-23 12:37:00,
2013-02-23 06:42:00,26.2,24.4,28.54,NW,315,2.0,4.0,93,0.00,,,0.00,meteohub,2013-02-23 12:42:00,
2013-02-23 06:47:00,26.2,24.8,28.53,NW,315,2.0,4.0,94,0.00,,,0.00,meteohub,2013-02-23 12:47:00,
2013-02-23 06:52:00,26.4,25.0,28.53,NW,315,2.0,4.0,94,0.00,,,0.00,meteohub,2013-02-23 12:52:00,
2013-02-23 06:57:00,26.6,25.3,28.53,NW,315,2.0,2.0,95,0.00,,,0.00,meteohub,2013-02-23 12:57:00,
2013-02-23 07:02:00,26.6,25.3,28.53,NW,315,3.0,3.0,95,0.00,,,0.00,meteohub,2013-02-23 13:02:00,
2013-02-23 07:07:00,26.6,25.3,28.53,NW,315,2.0,4.0,95,0.00,,,0.00,meteohub,2013-02-23 13:07:00,
2013-02-23 07:12:00,27.0,25.7,28.53,NW,315,2.0,4.0,95,0.00,,,0.00,meteohub,2013-02-23 13:12:00,
2013-02-23 07:17:00,27.0,25.7,28.52,NW,315,2.0,4.0,95,0.00,,,0.00,meteohub,2013-02-23 13:17:00,
2013-02-23 07:22:00,27.0,25.7,28.53,NW,315,2.0,4.0,95,0.00,,,0.00,meteohub,2013-02-23 13:22:00,
2013-02-23 07:27:00,27.0,25.7,28.53,West,270,4.0,4.0,95,0.00,,,0.00,meteohub,2013-02-23 13:27:00,
2013-02-23 07:32:00,27.0,25.7,28.53,West,270,3.0,4.0,95,0.00,,,0.00,meteohub,2013-02-23 13:32:00,
2013-02-23 07:37:00,27.1,25.9,28.53,NW,315,2.0,4.0,95,0.00,,,0.00,meteohub,2013-02-23 13:37:00,
2013-02-23 07:42:00,27.1,25.9,28.53,NW,315,1.0,4.0,95,0.00,,,0.00,meteohub,2013-02-23 13:42:00,
2013-02-23 07:47:00,27.5,26.2,28.53,West,270,2.0,4.0,95,0.00,,,0.00,meteohub,2013-02-23 13:47:00,
2013-02-23 07:52:00,27.5,26.2,28.53,South,180,3.0,4.0,95,0.00,,,0.00,meteohub,2013-02-23 13:52:00,
2013-02-23 07:57:00,27.9,26.6,28.53,West,270,4.0,4.0,95,0.00,,,0.00,meteohub,2013-02-23 13:57:00,
2013-02-23 08:02:00,27.7,26.4,28.53,West,270,4.0,4.0,95,0.00,,,0.00,meteohub,2013-02-23 14:02:00,
2013-02-23 08:07:00,27.7,26.4,28.54,West,270,5.0,5.0,95,0.00,,,0.00,meteohub,2013-02-23 14:07:00,
2013-02-23 08:12:00,27.7,26.4,28.54,North,0,3.0,5.0,95,0.00,,,0.00,meteohub,2013-02-23 14:12:00,
2013-02-23 08:17:00,27.7,26.2,28.54,West,270,3.0,5.0,94,0.00,,,0.00,meteohub,2013-02-23 14:17:00,
2013-02-23 08:22:00,27.9,26.4,28.54,SW,225,4.0,5.0,94,0.00,,,0.00,meteohub,2013-02-23 14:22:00,
2013-02-23 08:27:00,28.0,26.6,28.54,SW,225,3.0,4.0,94,0.00,,,0.00,meteohub,2013-02-23 14:27:00,
2013-02-23 08:32:00,28.4,26.6,28.55,West,270,5.0,5.0,93,0.00,,,0.00,meteohub,2013-02-23 14:32:00,
2013-02-23 08:37:00,28.2,26.4,28.55,SW,225,4.0,7.0,93,0.00,,,0.00,meteohub,2013-02-23 14:37:00,
2013-02-23 08:42:00,28.2,26.4,28.56,West,270,5.0,7.0,93,0.00,,,0.00,meteohub,2013-02-23 14:42:00,
2013-02-23 08:47:00,28.4,26.6,28.56,SW,225,8.0,8.0,93,0.00,,,0.00,meteohub,2013-02-23 14:47:00,
2013-02-23 08:52:00,28.6,26.8,28.57,WSW,248,7.0,8.0,93,0.00,,,0.00,meteohub,2013-02-23 14:52:00,
2013-02-23 08:57:00,28.8,27.0,28.57,WSW,248,5.0,8.0,93,0.00,,,0.00,meteohub,2013-02-23 14:57:00,
2013-02-23 09:02:00,28.9,27.1,28.57,South,180,4.0,8.0,93,0.00,,,0.00,meteohub,2013-02-23 15:02:00,
2013-02-23 09:07:00,28.8,26.8,28.57,SW,225,6.0,7.0,92,0.00,,,0.00,meteohub,2013-02-23 15:07:00,
2013-02-23 09:12:00,28.6,26.6,28.57,West,270,2.0,7.0,92,0.00,,,0.00,meteohub,2013-02-23 15:12:00,
2013-02-23 09:17:00,28.2,26.4,28.57,West,270,5.0,6.0,93,0.00,,,0.00,meteohub,2013-02-23 15:17:00,
2013-02-23 09:22:00,28.2,26.8,28.58,SW,225,4.0,6.0,94,0.00,,,0.00,meteohub,2013-02-23 15:22:00,
2013-02-23 09:27:00,28.2,26.8,28.58,SW,225,5.0,6.0,94,0.00,,,0.00,meteohub,2013-02-23 15:27:00,
2013-02-23 09:32:00,28.2,27.0,28.58,West,270,4.0,7.0,95,0.00,,,0.00,meteohub,2013-02-23 15:32:00,
2013-02-23 09:37:00,28.6,27.3,28.57,South,180,5.0,7.0,95,0.00,,,0.00,meteohub,2013-02-23 15:37:00,
2013-02-23 09:42:00,29.3,28.2,28.57,SW,225,3.0,7.0,96,0.00,,,0.00,meteohub,2013-02-23 15:42:00,
2013-02-23 09:47:00,29.7,28.6,28.57,SW,225,4.0,7.0,96,0.00,,,0.00,meteohub,2013-02-23 15:47:00,
2013-02-23 09:52:00,30.0,28.9,28.58,WSW,248,3.0,5.0,96,0.00,,,0.00,meteohub,2013-02-23 15:52:00,
2013-02-23 09:57:00,30.4,29.3,28.58,South,180,5.0,5.0,96,0.00,,,0.00,meteohub,2013-02-23 15:57:00,
2013-02-23 10:02:00,30.6,29.3,28.58,SW,225,5.0,5.0,95,0.00,,,0.00,meteohub,2013-02-23 16:02:00,
2013-02-23 10:07:00,30.6,29.3,28.58,South,180,7.0,7.0,95,0.00,,,0.00,meteohub,2013-02-23 16:07:00,
2013-02-23 10:12:00,30.7,29.5,28.58,SW,225,7.0,7.0,95,0.00,,,0.00,meteohub,2013-02-23 16:12:00,
2013-02-23 10:17:00,31.1,29.8,28.58,SW,225,6.0,7.0,95,0.00,,,0.00,meteohub,2013-02-23 16:17:00,
2013-02-23 10:22:00,31.6,30.4,28.58,South,180,6.0,7.0,95,0.00,,,0.00,meteohub,2013-02-23 16:22:00,
2013-02-23 10:27:00,31.5,29.7,28.58,WSW,248,7.0,8.0,93,0.00,,,0.00,meteohub,2013-02-23 16:27:00,
2013-02-23 10:32:00,31.6,29.8,28.58,SE,135,7.0,8.0,93,0.00,,,0.00,meteohub,2013-02-23 16:32:00,
2013-02-23 10:37:00,31.6,29.8,28.57,South,180,5.0,8.0,93,0.00,,,0.00,meteohub,2013-02-23 16:37:00,
2013-02-23 10:42:00,31.6,29.7,28.57,South,180,6.0,8.0,92,0.00,,,0.00,meteohub,2013-02-23 16:42:00,
2013-02-23 10:47:00,32.2,29.8,28.57,South,180,2.0,8.0,91,0.01,,,0.01,meteohub,2013-02-23 16:47:00,
2013-02-23 10:52:00,32.5,30.2,28.56,SE,135,5.0,7.0,91,0.01,,,0.01,meteohub,2013-02-23 16:52:00,
2013-02-23 10:57:00,33.4,30.7,28.56,South,180,8.0,8.0,90,0.01,,,0.01,meteohub,2013-02-23 16:57:00,
2013-02-23 11:02:00,33.3,29.8,28.56,SE,135,7.0,8.0,87,0.01,,,0.01,meteohub,2013-02-23 17:02:00,
2013-02-23 11:07:00,33.8,30.4,28.56,South,180,7.0,8.0,87,0.01,,,0.01,meteohub,2013-02-23 17:07:00,
2013-02-23 11:12:00,34.2,30.4,28.56,SE,135,6.0,11.0,86,0.01,,,0.01,meteohub,2013-02-23 17:12:00,
2013-02-23 11:17:00,34.7,30.4,28.55,SE,135,7.0,11.0,84,0.01,,,0.01,meteohub,2013-02-23 17:17:00,
2013-02-23 11:23:00,35.6,30.9,28.54,East,90,6.0,11.0,83,0.01,,,0.01,meteohub,2013-02-23 17:23:00,
2013-02-23 11:28:00,36.5,31.5,28.54,SE,135,8.0,8.0,82,0.01,,,0.01,meteohub,2013-02-23 17:28:00,
2013-02-23 11:33:00,36.9,31.6,28.53,East,90,5.0,8.0,81,0.01,,,0.01,meteohub,2013-02-23 17:33:00,
2013-02-23 11:38:00,37.0,31.1,28.54,SE,135,7.0,8.0,79,0.01,,,0.01,meteohub,2013-02-23 17:38:00,
2013-02-23 11:43:00,37.9,31.5,28.54,South,180,7.0,8.0,77,0.00,,,0.01,meteohub,2013-02-23 17:43:00,
2013-02-23 11:48:00,38.8,32.2,28.53,South,180,7.0,7.0,77,0.00,,,0.01,meteohub,2013-02-23 17:48:00,
2013-02-23 11:53:00,39.2,31.6,28.53,South,180,8.0,8.0,74,0.00,,,0.01,meteohub,2013-02-23 17:53:00,
2013-02-23 11:58:00,39.0,31.1,28.53,SE,135,7.0,8.0,73,0.00,,,0.01,meteohub,2013-02-23 17:58:00,
2013-02-23 12:03:00,39.2,32.0,28.52,SE,135,7.0,9.0,75,0.00,,,0.01,meteohub,2013-02-23 18:03:00,
2013-02-23 12:08:00,39.9,32.0,28.52,NE,45,8.0,9.0,73,0.00,,,0.01,meteohub,2013-02-23 18:08:00,
2013-02-23 12:13:00,40.1,30.7,28.52,East,90,7.0,9.0,69,0.00,,,0.01,meteohub,2013-02-23 18:13:00,
2013-02-23 12:18:00,41.0,31.6,28.52,South,180,9.0,12.0,69,0.00,,,0.01,meteohub,2013-02-23 18:18:00,
2013-02-23 12:23:00,40.8,31.1,28.51,SE,135,6.0,12.0,68,0.00,,,0.01,meteohub,2013-02-23 18:23:00,
2013-02-23 12:28:00,41.4,31.6,28.51,South,180,8.0,11.0,68,0.00,,,0.01,meteohub,2013-02-23 18:28:00,
2013-02-23 12:33:00,41.7,32.4,28.50,East,90,8.0,11.0,69,0.00,,,0.01,meteohub,2013-02-23 18:33:00,
2013-02-23 12:38:00,41.9,32.2,28.50,South,180,7.0,11.0,68,0.00,,,0.01,meteohub,2013-02-23 18:38:00,
2013-02-23 12:43:00,41.9,31.8,28.50,SE,135,5.0,11.0,67,0.00,,,0.01,meteohub,2013-02-23 18:43:00,
2013-02-23 12:48:00,42.4,31.8,28.50,SE,135,6.0,11.0,66,0.00,,,0.01,meteohub,2013-02-23 18:48:00,
2013-02-23 12:53:00,42.6,30.9,28.49,South,180,8.0,9.0,63,0.00,,,0.01,meteohub,2013-02-23 18:53:00,
2013-02-23 12:58:00,42.8,31.1,28.48,SE,135,6.0,9.0,63,0.00,,,0.01,meteohub,2013-02-23 18:58:00,
2013-02-23 13:03:00,43.2,30.6,28.48,East,90,8.0,11.0,61,0.00,,,0.01,meteohub,2013-02-23 19:03:00,
2013-02-23 13:08:00,43.0,31.3,28.48,SE,135,7.0,11.0,63,0.00,,,0.01,meteohub,2013-02-23 19:08:00,
2013-02-23 13:13:00,43.7,32.4,28.48,East,90,10.0,10.0,64,0.00,,,0.01,meteohub,2013-02-23 19:13:00,
2013-02-23 13:18:00,43.9,31.3,28.48,SE,135,5.0,10.0,61,0.00,,,0.01,meteohub,2013-02-23 19:18:00,
2013-02-23 13:23:00,44.1,30.7,28.48,SW,225,11.0,11.0,59,0.00,,,0.01,meteohub,2013-02-23 19:23:00,
2013-02-23 13:28:00,44.2,31.3,28.48,South,180,3.0,11.0,60,0.00,,,0.01,meteohub,2013-02-23 19:28:00,
2013-02-23 13:33:00,44.6,31.1,28.47,SE,135,7.0,11.0,59,0.00,,,0.01,meteohub,2013-02-23 19:33:00,
2013-02-23 13:38:00,45.0,31.5,28.46,SE,135,4.0,11.0,59,0.00,,,0.01,meteohub,2013-02-23 19:38:00,
2013-02-23 13:43:00,45.3,30.9,28.46,South,180,4.0,11.0,57,0.00,,,0.01,meteohub,2013-02-23 19:43:00,
2013-02-23 13:48:00,45.1,31.6,28.46,NE,45,7.0,11.0,59,0.00,,,0.01,meteohub,2013-02-23 19:48:00,
2013-02-23 13:53:00,45.3,30.9,28.46,East,90,7.0,11.0,57,0.00,,,0.01,meteohub,2013-02-23 19:53:00,
2013-02-23 13:58:00,45.1,30.4,28.45,South,180,8.0,11.0,56,0.00,,,0.01,meteohub,2013-02-23 19:58:00,
2013-02-23 14:03:00,46.0,31.6,28.45,SE,135,8.0,11.0,57,0.00,,,0.01,meteohub,2013-02-23 20:03:00,
2013-02-23 14:08:00,46.2,30.9,28.45,South,180,6.0,11.0,55,0.00,,,0.01,meteohub,2013-02-23 20:08:00,
2013-02-23 14:13:00,46.4,30.7,28.45,South,180,6.0,11.0,54,0.00,,,0.01,meteohub,2013-02-23 20:13:00,
2013-02-23 14:18:00,46.8,30.9,28.45,South,180,5.0,9.0,54,0.00,,,0.01,meteohub,2013-02-23 20:18:00,
2013-02-23 14:23:00,47.3,31.5,28.45,East,90,4.0,9.0,54,0.00,,,0.01,meteohub,2013-02-23 20:23:00,
2013-02-23 14:28:00,47.8,31.5,28.45,SE,135,8.0,9.0,53,0.00,,,0.01,meteohub,2013-02-23 20:28:00,
2013-02-23 14:34:00,47.7,31.3,28.45,SE,135,7.0,9.0,53,0.00,,,0.01,meteohub,2013-02-23 20:34:00,
2013-02-23 14:39:00,47.3,32.4,28.45,South,180,6.0,15.0,56,0.00,,,0.01,meteohub,2013-02-23 20:39:00,
2013-02-23 14:44:00,47.7,31.8,28.44,SE,135,9.0,15.0,54,0.00,,,0.01,meteohub,2013-02-23 20:44:00,
2013-02-23 14:49:00,47.8,32.0,28.44,South,180,8.0,15.0,54,0.00,,,0.01,meteohub,2013-02-23 20:49:00,
2013-02-23 14:54:00,47.8,32.0,28.44,SW,225,8.0,11.0,54,0.00,,,0.01,meteohub,2013-02-23 20:54:00,
2013-02-23 14:59:00,48.0,32.5,28.43,East,90,9.0,11.0,55,0.00,,,0.01,meteohub,2013-02-23 20:59:00,
2013-02-23 15:04:00,47.8,31.5,28.43,SW,225,10.0,11.0,53,0.00,,,0.01,meteohub,2013-02-23 21:04:00,
2013-02-23 15:09:00,47.8,32.0,28.43,South,180,7.0,11.0,54,0.00,,,0.01,meteohub,2013-02-23 21:09:00,
2013-02-23 15:14:00,47.7,31.8,28.42,SE,135,8.0,11.0,54,0.00,,,0.01,meteohub,2013-02-23 21:14:00,
2013-02-23 15:19:00,47.8,31.5,28.42,South,180,4.0,11.0,53,0.00,,,0.01,meteohub,2013-02-23 21:19:00,
2013-02-23 15:24:00,48.2,32.4,28.41,West,270,5.0,9.0,54,0.00,,,0.01,meteohub,2013-02-23 21:24:00,
2013-02-23 15:29:00,48.6,32.2,28.41,South,180,8.0,11.0,53,0.00,,,0.01,meteohub,2013-02-23 21:29:00,
2013-02-23 15:34:00,48.7,32.4,28.41,SE,135,9.0,11.0,53,0.00,,,0.01,meteohub,2013-02-23 21:34:00,
2013-02-23 15:39:00,48.7,32.9,28.41,SE,135,7.0,11.0,54,0.00,,,0.01,meteohub,2013-02-23 21:39:00,
2013-02-23 15:44:00,49.5,33.1,28.41,South,180,6.0,11.0,53,0.00,,,0.01,meteohub,2013-02-23 21:44:00,
2013-02-23 15:49:00,49.5,33.1,28.40,East,90,8.0,11.0,53,0.00,,,0.01,meteohub,2013-02-23 21:49:00,
2013-02-23 15:54:00,49.1,32.7,28.40,South,180,6.0,10.0,53,0.00,,,0.01,meteohub,2013-02-23 21:54:00,
2013-02-23 15:59:00,49.3,32.4,28.40,East,90,5.0,10.0,52,0.00,,,0.01,meteohub,2013-02-23 21:59:00,
2013-02-23 16:04:00,49.1,33.3,28.40,East,90,5.0,10.0,54,0.00,,,0.01,meteohub,2013-02-23 22:04:00,
2013-02-23 16:09:00,49.5,33.1,28.41,SE,135,8.0,10.0,53,0.00,,,0.01,meteohub,2013-02-23 22:09:00,
2013-02-23 16:14:00,49.5,33.1,28.40,SE,135,4.0,10.0,53,0.00,,,0.01,meteohub,2013-02-23 22:14:00,
2013-02-23 16:19:00,49.6,32.7,28.40,East,90,11.0,11.0,52,0.00,,,0.01,meteohub,2013-02-23 22:19:00,
2013-02-23 16:24:00,49.5,33.1,28.39,SE,135,9.0,11.0,53,0.00,,,0.01,meteohub,2013-02-23 22:24:00,
2013-02-23 16:29:00,49.3,33.3,28.40,SE,135,6.0,11.0,54,0.00,,,0.01,meteohub,2013-02-23 22:29:00,
2013-02-23 16:34:00,49.8,33.8,28.40,East,90,8.0,11.0,54,0.00,,,0.01,meteohub,2013-02-23 22:34:00,
2013-02-23 16:39:00,49.5,32.5,28.40,SE,135,4.0,9.0,52,0.00,,,0.01,meteohub,2013-02-23 22:39:00,
2013-02-23 16:44:00,49.8,33.4,28.40,South,180,6.0,9.0,53,0.00,,,0.01,meteohub,2013-02-23 22:44:00,
2013-02-23 16:49:00,49.8,32.9,28.40,SE,135,8.0,9.0,52,0.00,,,0.01,meteohub,2013-02-23 22:49:00,
2013-02-23 16:54:00,50.0,33.1,28.39,NE,45,8.0,11.0,52,0.00,,,0.01,meteohub,2013-02-23 22:54:00,
2013-02-23 16:59:00,50.0,33.6,28.40,SSE,158,4.0,11.0,53,0.00,,,0.01,meteohub,2013-02-23 22:59:00,
2013-02-23 17:04:00,50.4,33.4,28.39,SE,135,5.0,11.0,52,0.00,,,0.01,meteohub,2013-02-23 23:04:00,
2013-02-23 17:09:00,50.0,32.5,28.39,East,90,7.0,9.0,51,0.00,,,0.01,meteohub,2013-02-23 23:09:00,
2013-02-23 17:14:00,50.0,33.1,28.39,SSE,158,9.0,11.0,52,0.00,,,0.01,meteohub,2013-02-23 23:14:00,
2013-02-23 17:19:00,50.0,33.1,28.39,SE,135,7.0,11.0,52,0.00,,,0.01,meteohub,2013-02-23 23:19:00,
2013-02-23 17:24:00,50.0,33.1,28.39,SE,135,5.0,11.0,52,0.00,,,0.01,meteohub,2013-02-23 23:24:00,
2013-02-23 17:29:00,49.3,32.4,28.39,South,180,4.0,10.0,52,0.00,,,0.01,meteohub,2013-02-23 23:29:00,
2013-02-23 17:34:00,49.5,33.1,28.39,SE,135,11.0,11.0,53,0.00,,,0.01,meteohub,2013-02-23 23:34:00,
2013-02-23 17:39:00,49.3,32.9,28.40,South,180,4.0,11.0,53,0.00,,,0.01,meteohub,2013-02-23 23:39:00,
2013-02-23 17:45:00,49.3,33.3,28.40,SE,135,5.0,11.0,54,0.00,,,0.01,meteohub,2013-02-23 23:45:00,
2013-02-23 17:50:00,49.1,33.3,28.40,SE,135,7.0,11.0,54,0.00,,,0.01,meteohub,2013-02-23 23:50:00,
2013-02-23 17:55:00,49.1,33.3,28.39,SE,135,7.0,8.0,54,0.00,,,0.01,meteohub,2013-02-23 23:55:00,
2013-02-23 18:00:00,48.6,33.1,28.39,SE,135,9.0,9.0,55,0.00,,,0.01,meteohub,2013-02-24 00:00:00,
2013-02-23 18:05:00,48.2,33.3,28.39,East,90,7.0,9.0,56,0.00,,,0.01,meteohub,2013-02-24 00:05:00,
2013-02-23 18:10:00,48.0,33.4,28.39,East,90,8.0,9.0,57,0.00,,,0.00,meteohub,2013-02-24 00:10:00,
2013-02-23 18:15:00,47.5,33.4,28.39,East,90,4.0,9.0,58,0.00,,,0.00,meteohub,2013-02-24 00:15:00,
2013-02-23 18:20:00,47.1,33.1,28.39,SE,135,6.0,9.0,58,0.00,,,0.00,meteohub,2013-02-24 00:20:00,
2013-02-23 18:25:00,46.8,33.3,28.38,East,90,8.0,8.0,59,0.00,,,0.00,meteohub,2013-02-24 00:25:00,
2013-02-23 18:30:00,46.0,32.5,28.38,SE,135,5.0,9.0,59,0.00,,,0.00,meteohub,2013-02-24 00:30:00,
2013-02-23 18:35:00,46.2,33.1,28.38,ESE,113,6.0,9.0,60,0.00,,,0.00,meteohub,2013-02-24 00:35:00,
2013-02-23 18:40:00,45.7,32.5,28.38,East,90,6.0,9.0,60,0.00,,,0.00,meteohub,2013-02-24 00:40:00,
2013-02-23 18:45:00,45.5,32.9,28.38,East,90,5.0,9.0,61,0.00,,,0.00,meteohub,2013-02-24 00:45:00,
2013-02-23 18:50:00,45.1,32.9,28.38,East,90,7.0,8.0,62,0.00,,,0.00,meteohub,2013-02-24 00:50:00,
2013-02-23 18:55:00,45.0,33.1,28.38,East,90,7.0,8.0,63,0.00,,,0.00,meteohub,2013-02-24 00:55:00,
2013-02-23 19:00:00,44.6,33.3,28.38,East,90,7.0,8.0,64,0.00,,,0.00,meteohub,2013-02-24 01:00:00,
2013-02-23 19:05:00,44.2,33.3,28.37,SE,135,6.0,8.0,65,0.00,,,0.00,meteohub,2013-02-24 01:05:00,
2013-02-23 19:10:00,44.1,33.1,28.38,NE,45,6.0,8.0,65,0.00,,,0.00,meteohub,2013-02-24 01:10:00,
2013-02-23 19:15:00,44.1,33.1,28.37,East,90,11.0,11.0,65,0.00,,,0.00,meteohub,2013-02-24 01:15:00,
2013-02-23 19:20:00,44.1,33.1,28.37,East,90,9.0,10.0,65,0.00,,,0.00,meteohub,2013-02-24 01:20:00,
2013-02-23 19:25:00,43.7,32.7,28.38,SE,135,9.0,12.0,65,0.00,,,0.00,meteohub,2013-02-24 01:25:00,
2013-02-23 19:30:00,43.7,33.1,28.37,East,90,10.0,12.0,66,0.00,,,0.00,meteohub,2013-02-24 01:30:00,
2013-02-23 19:35:00,43.3,32.7,28.37,East,90,9.0,12.0,66,0.00,,,0.00,meteohub,2013-02-24 01:35:00,
2013-02-23 19:40:00,43.0,32.7,28.37,East,90,8.0,11.0,67,0.00,,,0.00,meteohub,2013-02-24 01:40:00,
2013-02-23 19:45:00,42.8,32.5,28.36,East,90,11.0,11.0,67,0.00,,,0.00,meteohub,2013-02-24 01:45:00,
2013-02-23 19:50:00,42.4,32.2,28.36,East,90,10.0,12.0,67,0.00,,,0.00,meteohub,2013-02-24 01:50:00,
2013-02-23 19:55:00,42.3,32.5,28.36,East,90,11.0,12.0,68,0.00,,,0.00,meteohub,2013-02-24 01:55:00,
2013-02-23 20:00:00,42.1,32.7,28.36,East,90,10.0,11.0,69,0.00,,,0.00,meteohub,2013-02-24 02:00:00,
2013-02-23 20:05:00,41.5,32.5,28.36,SE,135,10.0,12.0,70,0.00,,,0.00,meteohub,2013-02-24 02:05:00,
2013-02-23 20:10:00,41.7,32.7,28.36,East,90,11.0,12.0,70,0.00,,,0.00,meteohub,2013-02-24 02:10:00,
2013-02-23 20:15:00,41.4,32.4,28.36,East,90,11.0,12.0,70,0.00,,,0.00,meteohub,2013-02-24 02:15:00,
2013-02-23 20:20:00,41.2,32.5,28.36,East,90,10.0,12.0,71,0.00,,,0.00,meteohub,2013-02-24 02:20:00,
2013-02-23 20:25:00,41.0,32.7,28.36,East,90,10.0,12.0,72,0.00,,,0.00,meteohub,2013-02-24 02:25:00,
2013-02-23 20:30:00,40.8,32.5,28.37,East,90,11.0,13.0,72,0.00,,,0.00,meteohub,2013-02-24 02:30:00,
2013-02-23 20:35:00,40.6,32.4,28.36,East,90,9.0,13.0,72,0.00,,,0.00,meteohub,2013-02-24 02:35:00,
2013-02-23 20:40:00,40.3,32.4,28.36,SE,135,10.0,11.0,73,0.00,,,0.00,meteohub,2013-02-24 02:40:00,
2013-02-23 20:45:00,39.9,32.4,28.36,East,90,9.0,12.0,74,0.00,,,0.00,meteohub,2013-02-24 02:45:00,
2013-02-23 20:50:00,39.7,32.2,28.36,East,90,11.0,12.0,74,0.00,,,0.00,meteohub,2013-02-24 02:50:00,
2013-02-23 20:55:00,39.6,32.4,28.36,East,90,12.0,12.0,75,0.00,,,0.00,meteohub,2013-02-24 02:55:00,
2013-02-23 21:00:00,39.6,32.4,28.36,East,90,10.0,12.0,75,0.00,,,0.00,meteohub,2013-02-24 03:00:00,
2013-02-23 21:05:00,39.4,32.2,28.36,East,90,12.0,12.0,75,0.00,,,0.00,meteohub,2013-02-24 03:05:00,
2013-02-23 21:10:00,39.0,31.8,28.36,East,90,11.0,12.0,75,0.00,,,0.00,meteohub,2013-02-24 03:10:00,
2013-02-23 21:15:00,39.4,32.2,28.36,NE,45,10.0,12.0,75,0.00,,,0.00,meteohub,2013-02-24 03:15:00,
2013-02-23 21:20:00,39.4,32.2,28.36,East,90,12.0,12.0,75,0.00,,,0.00,meteohub,2013-02-24 03:20:00,
2013-02-23 21:25:00,39.4,31.8,28.36,East,90,11.0,15.0,74,0.00,,,0.00,meteohub,2013-02-24 03:25:00,
2013-02-23 21:30:00,39.2,32.0,28.36,East,90,11.0,15.0,75,0.00,,,0.00,meteohub,2013-02-24 03:30:00,
2013-02-23 21:35:00,39.0,31.8,28.35,NE,45,10.0,15.0,75,0.00,,,0.00,meteohub,2013-02-24 03:35:00,
2013-02-23 21:40:00,39.0,31.8,28.35,East,90,12.0,12.0,75,0.00,,,0.00,meteohub,2013-02-24 03:40:00,
2013-02-23 21:45:00,38.8,31.6,28.35,East,90,9.0,12.0,75,0.00,,,0.00,meteohub,2013-02-24 03:45:00,
2013-02-23 21:50:00,38.8,32.0,28.35,East,90,14.0,14.0,76,0.00,,,0.00,meteohub,2013-02-24 03:50:00,
2013-02-23 21:55:00,38.8,31.6,28.35,East,90,9.0,14.0,75,0.00,,,0.00,meteohub,2013-02-24 03:55:00,
2013-02-23 22:00:00,38.7,31.8,28.35,East,90,11.0,14.0,76,0.00,,,0.00,meteohub,2013-02-24 04:00:00,
2013-02-23 22:06:00,38.3,31.5,28.35,East,90,12.0,14.0,76,0.00,,,0.00,meteohub,2013-02-24 04:06:00,
2013-02-23 22:11:00,38.3,31.5,28.36,East,90,13.0,15.0,76,0.00,,,0.00,meteohub,2013-02-24 04:11:00,
2013-02-23 22:16:00,38.5,31.6,28.36,East,90,12.0,15.0,76,0.00,,,0.00,meteohub,2013-02-24 04:16:00,
2013-02-23 22:21:00,38.7,31.8,28.36,East,90,13.0,15.0,76,0.00,,,0.00,meteohub,2013-02-24 04:21:00,
2013-02-23 22:26:00,38.5,31.6,28.36,East,90,14.0,15.0,76,0.00,,,0.00,meteohub,2013-02-24 04:26:00,
2013-02-23 22:31:00,38.3,31.6,28.36,East,90,15.0,15.0,77,0.00,,,0.00,meteohub,2013-02-24 04:31:00,
2013-02-23 22:36:00,37.9,31.5,28.36,East,90,12.0,15.0,77,0.00,,,0.00,meteohub,2013-02-24 04:36:00,
2013-02-23 22:41:00,38.1,31.6,28.36,East,90,13.0,17.0,77,0.00,,,0.00,meteohub,2013-02-24 04:41:00,
2013-02-23 22:46:00,37.9,31.6,28.36,East,90,13.0,17.0,78,0.00,,,0.00,meteohub,2013-02-24 04:46:00,
2013-02-23 22:51:00,37.8,31.5,28.35,NE,45,11.0,17.0,78,0.00,,,0.00,meteohub,2013-02-24 04:51:00,
2013-02-23 22:56:00,37.8,31.5,28.35,East,90,11.0,15.0,78,0.00,,,0.00,meteohub,2013-02-24 04:56:00,
2013-02-23 23:00:00,37.9,31.6,28.35,East,90,12.0,15.0,78,0.00,,,0.00,meteohub,2013-02-24 05:00:00,
2013-02-23 23:05:00,37.8,31.5,28.35,East,90,13.0,15.0,78,0.00,,,0.00,meteohub,2013-02-24 05:05:00,
2013-02-23 23:10:00,37.9,31.6,28.34,East,90,18.0,18.0,78,0.00,,,0.00,meteohub,2013-02-24 05:10:00,
2013-02-23 23:15:00,38.1,31.6,28.34,East,90,14.0,18.0,77,0.00,,,0.00,meteohub,2013-02-24 05:15:00,
2013-02-23 23:20:00,38.1,31.6,28.34,East,90,16.0,18.0,77,0.00,,,0.00,meteohub,2013-02-24 05:20:00,
2013-02-23 23:25:00,38.3,31.6,28.34,East,90,17.0,18.0,77,0.00,,,0.00,meteohub,2013-02-24 05:25:00,
2013-02-23 23:30:00,37.9,31.5,28.34,East,90,13.0,17.0,77,0.00,,,0.00,meteohub,2013-02-24 05:30:00,
2013-02-23 23:35:00,38.1,31.3,28.34,East,90,14.0,17.0,76,0.00,,,0.00,meteohub,2013-02-24 05:35:00,
2013-02-23 23:40:00,38.3,31.6,28.34,East,90,13.0,17.0,77,0.00,,,0.00,meteohub,2013-02-24 05:40:00,
2013-02-23 23:45:00,38.1,31.6,28.33,East,90,12.0,18.0,77,0.00,,,0.00,meteohub,2013-02-24 05:45:00,
2013-02-23 23:50:00,38.1,31.6,28.33,East,90,11.0,18.0,77,0.00,,,0.00,meteohub,2013-02-24 05:50:00,
2013-02-23 23:55:00,37.9,31.6,28.33,East,90,12.0,16.0,78,0.00,,,0.00,meteohub,2013-02-24 05:55:00,